This is the latest recevied weather packets stored in our database for station/object KI2K. If no packets are shown the sender has not sent any weather packets the latest 1 day(s).
| Time | Temp. | Humidity | Pressure | Rain* | Wind** | Luminosity | Snow |
|---|---|---|---|---|---|---|---|
| 1778022391 | 8.33° C | 99% | 1007.9 hPa | 3.05 mm | 0.45 m/s, 285° | 10 W/m² | - |
| 1778022087 | 8.33° C | 99% | 1008 hPa | 3.05 mm | 0 m/s | 6 W/m² | - |
| 1778021783 | 8.33° C | 99% | 1008.1 hPa | 3.05 mm | 0 m/s | 8 W/m² | - |
| 1778021480 | 8.33° C | 99% | 1008.2 hPa | 3.05 mm | 0 m/s | 14 W/m² | - |
| 1778021176 | 8.33° C | 99% | 1008.3 hPa | 3.05 mm | 0.45 m/s, 274° | 15 W/m² | - |
| 1778020874 | 8.33° C | 99% | 1008 hPa | 1.78 mm | 0.45 m/s, 319° | 12 W/m² | - |
| 1778020571 | 8.33° C | 99% | 1008.1 hPa | 1.78 mm | 0 m/s | 26 W/m² | - |
| 1778020267 | 8.33° C | 99% | 1008 hPa | 3.05 mm | 0 m/s | 26 W/m² | - |
| 1778019964 | 8.33° C | 99% | 1008 hPa | 1.27 mm | 0.45 m/s, 280° | 38 W/m² | - |
| 1778019660 | 8.33° C | 99% | 1008.1 hPa | 3.05 mm | 0.45 m/s, 285° | 39 W/m² | - |
| 1778019357 | 8.33° C | 99% | 1007.8 hPa | 6.1 mm | 0.45 m/s, 301° | 32 W/m² | - |
| 1778019053 | 8.33° C | 99% | 1008 hPa | 4.83 mm | 0.89 m/s, 339° | 36 W/m² | - |
| 1778018751 | 8.33° C | 99% | 1008 hPa | 6.1 mm | 0.45 m/s, 232° | 38 W/m² | - |
| 1778018448 | 8.33° C | 99% | 1008.1 hPa | 7.11 mm | 0 m/s | 24 W/m² | - |
| 1778018146 | 8.33° C | 99% | 1008.3 hPa | 6.1 mm | 0.45 m/s, 287° | 22 W/m² | - |
| 1778017844 | 8.33° C | 99% | 1008.5 hPa | 3.56 mm | 0.45 m/s, 314° | 18 W/m² | - |
| 1778017542 | 8.89° C | 99% | 1008.6 hPa | 1.78 mm | 0.89 m/s, 287° | 18 W/m² | - |
| 1778017238 | 8.89° C | 99% | 1008.3 hPa | 1.27 mm | 0.45 m/s, 292° | 15 W/m² | - |
| 1778016936 | 8.89° C | 99% | 1008.2 hPa | 1.27 mm | 0.89 m/s, 308° | 30 W/m² | - |
| 1778016632 | 8.89° C | 99% | 1008.2 hPa | 0 mm | 0.45 m/s, 276° | 34 W/m² | - |
| 1778016328 | 8.89° C | 99% | 1008.2 hPa | 0 mm | 0.45 m/s, 294° | 19 W/m² | - |
| 1778016026 | 8.89° C | 99% | 1008 hPa | 0 mm | 0.45 m/s, 276° | 23 W/m² | - |
| 1778015723 | 9.44° C | 99% | 1007.9 hPa | 0 mm | 0.45 m/s, 299° | 31 W/m² | - |
| 1778015420 | 9.44° C | 99% | 1007.8 hPa | 0 mm | 0.45 m/s, 275° | 32 W/m² | - |
| 1778015117 | 9.44° C | 99% | 1008 hPa | 0 mm | 0.45 m/s, 299° | 23 W/m² | - |
* Rain latest hour (hover to see other rain measurements)
** Current wind speed in m/s (hover to see current wind gust speed)